Other Public Products
Issued by NWS Charleston, SC

Home | Current Version | Previous Version | Text Only | Print | Product List | Glossary On
Versions: 1 2 3 4 5 6 7 8 9 10 11 12 13 14 15 16 17 18 19 20 21 22 23 24 25 26 27 28 29 30 31 32 33 34 35 36 37 38 39 40 41 42 43 44 45 46 47 48 49 50
000
FPUS82 KCHS 270612
OPUCHS

TEST...KCHS/KSAV Gateway Observations...TEST
National Weather Service Charleston SC
200 AM EDT MON MAR 27 2017

NOTE: "fair" indicates few or no clouds below 12,000 feet with no
significant weather and/or obstructions to visibility.

SCZ050-WAZ558-NCZ071-TXZ119-213-PAZ071-DCZ001-FLZ074-172-MI076-
NYZ176-178-MAZ016-IL014-TNZ027-NJZ106-GAZ044-MD014-270700-

...Gateway Observations for Charleston International...

CITY           SKY/WX    TMP DP  RH WIND       PRES   REMARKS
Chas Airport   PTCLDY    60  55  83 S7        30.14F
6HR MIN TEMP:  60; 6HR MAX TEMP:  68;

Seattle        LGT RAIN  46  44  93 S10       29.83R FOG
6HR MIN TEMP:  46; 6HR MAX TEMP:  48; 6HR PCP:  0.13;

Charlotte      LGT RAIN  63  56  78 S16       30.10F
6HR MIN TEMP:  62; 6HR MAX TEMP:  68; 6HR PCP: TRACE;

Dallas DFW     PTCLDY    72  63  73 S21       29.74F
6HR MIN TEMP:  72; 6HR MAX TEMP:  82;

Dallas Love    PTCLDY    72  62  71 S13G21    29.77S
6HR MIN TEMP:  72; 6HR MAX TEMP:  82;

Philladelphia  CLOUDY    42  40  92 E8        30.21F FOG
6HR MIN TEMP:  41; 6HR MAX TEMP:  42;

Wash National  DRIZZLE   47  46  97 E5        30.17F FOG
6HR MIN TEMP:  46; 6HR MAX TEMP:  48; 6HR PCP: TRACE;

Baltimore      FOG       44  44 100 E9        30.17F VSB 1/2
6HR MIN TEMP:  44; 6HR MAX TEMP:  45; 6HR PCP: TRACE;

Miami          PTCLDY    71  61  70 NE3       30.06F
6HR MIN TEMP:  71; 6HR MAX TEMP:  75;

Detroit        CLOUDY    50  49  96 S5        29.88F FOG
6HR MIN TEMP:  49; 6HR MAX TEMP:  51; 6HR PCP:  0.03;

Newark         DRIZZLE   40  39  97 NE8       30.26F FOG     WCI  34
6HR MIN TEMP:  40; 6HR MAX TEMP:  41; 6HR PCP:  0.02;

Laguardia      DRIZZLE   39  37  92 NE13      30.26F FOG     WCI  31
6HR MIN TEMP:  39; 6HR MAX TEMP:  43; 6HR PCP:  0.02;

J F K          DRIZZLE   40  39  97 NE8       30.27F FOG     WCI  34
6HR MIN TEMP:  40; 6HR MAX TEMP:  40; 6HR PCP:  0.03;

Boston Logan   CLOUDY    37  32  82 E9        30.36F WCI  30
6HR MIN TEMP:  37; 6HR MAX TEMP:  37; 6HR PCP: TRACE;

Ft. Lauderdale PTCLDY    72  60  66 E8        30.05F
6HR MIN TEMP:  72; 6HR MAX TEMP:  74;

Chicago O`Hare DRIZZLE   52  50  93 SW10      29.87S FOG
6HR MIN TEMP:  52; 6HR MAX TEMP:  57; 6HR PCP: TRACE;

Chicago Midway CLOUDY    51  50  96 SW13      29.88S FOG
6HR MIN TEMP:  51; 6HR MAX TEMP:  56; 6HR PCP: TRACE;

Houston Bush   MOCLDY    73  67  81 SW5       29.91S
6HR MIN TEMP:  72; 6HR MAX TEMP:  77;

Houston Hobby  MOCLDY    71  68  90 SE6       29.88F
6HR MIN TEMP:  71; 6HR MAX TEMP:  75;

Nashville      CLOUDY    60  54  80 S6        29.98F
6HR MIN TEMP:  59; 6HR MAX TEMP:  71;

Atlanta        PTCLDY    64  55  72 CALM      30.06S
6HR MIN TEMP:  64; 6HR MAX TEMP:  75;


$$

GAZ044-118-TXZ119-213-NCZ071-DCZ001-MDZ014-506-PAZ021-071-NJZ106-
NYZ176-178-MAZ106-OHZ011-021-055-MIZ076-KYZ091-ILZ014-INZ047-
MNZ060-ONZ431-270700-

...Gateway Observations for Savannah International...

CITY           SKY/WX    TMP DP  RH WIND       PRES   REMARKS
Savannah Arpt  CLEAR     63  58  83 SE6       30.13F
6HR MIN TEMP:  63; 6HR MAX TEMP:  70;

Atlanta        PTCLDY    64  55  72 CALM      30.06S
6HR MIN TEMP:  64; 6HR MAX TEMP:  75;

Charlotte      LGT RAIN  63  56  78 S16       30.10F
6HR MIN TEMP:  62; 6HR MAX TEMP:  68; 6HR PCP: TRACE;

Dallas DFW     PTCLDY    72  63  73 S21       29.74F
6HR MIN TEMP:  72; 6HR MAX TEMP:  82;

Houston Bush   MOCLDY    73  67  81 SW5       29.91S
6HR MIN TEMP:  72; 6HR MAX TEMP:  77;

Wash National  DRIZZLE   47  46  97 E5        30.17F FOG
6HR MIN TEMP:  46; 6HR MAX TEMP:  48; 6HR PCP: TRACE;

Wash Dulles    DRZL/FOG  45  44  97 SE5       30.15F VSB 3/4
6HR MIN TEMP:  45; 6HR MAX TEMP:  47; 6HR PCP:  0.02;

Baltimore      FOG       44  44 100 E9        30.17F VSB 1/2
6HR MIN TEMP:  44; 6HR MAX TEMP:  45; 6HR PCP: TRACE;

Philadelphia   CLOUDY    42  40  92 E8        30.21F FOG
6HR MIN TEMP:  41; 6HR MAX TEMP:  42;

Newark         DRIZZLE   40  39  97 NE8       30.26F FOG     WCI  34
6HR MIN TEMP:  40; 6HR MAX TEMP:  41; 6HR PCP:  0.02;

Laguardia      DRIZZLE   39  37  92 NE13      30.26F FOG     WCI  31
6HR MIN TEMP:  39; 6HR MAX TEMP:  43; 6HR PCP:  0.02;

J F K          DRIZZLE   40  39  97 NE8       30.27F FOG     WCI  34
6HR MIN TEMP:  40; 6HR MAX TEMP:  40; 6HR PCP:  0.03;

Boston         CLOUDY    37  32  82 E9        30.36F WCI  30
6HR MIN TEMP:  37; 6HR MAX TEMP:  37; 6HR PCP: TRACE;

Pittsburg      LGT RAIN  53  53 100 CALM      29.95S FOG
6HR MIN TEMP:  53; 6HR MAX TEMP:  55; 6HR PCP:  0.22;

Akron          CLOUDY    55  51  86 S8        29.92F
6HR MIN TEMP:  54; 6HR MAX TEMP:  58; 6HR PCP:  0.14;

Cleveland      CLOUDY    57  52  83 S8        29.92F
6HR MIN TEMP:  57; 6HR MAX TEMP:  59; 6HR PCP:  0.06;

Cincinnati     CLOUDY    50  50 100 S5        29.96F
6HR MIN TEMP:  50; 6HR MAX TEMP:  58; 6HR PCP: TRACE;

Columbus       CLEAR     52  53 100 SW8       29.95S
Detroit        CLOUDY    50  49  96 S5        29.88F FOG
6HR MIN TEMP:  49; 6HR MAX TEMP:  51; 6HR PCP:  0.03;

Chicago O`Hare DRIZZLE   52  50  93 SW10      29.87S FOG
6HR MIN TEMP:  52; 6HR MAX TEMP:  57; 6HR PCP: TRACE;

Minneapolis    CLOUDY    39  35  86 NE5       29.93F WCI  36
6HR MIN TEMP:  39; 6HR MAX TEMP:  43; 6HR PCP: TRACE;

Indianapolis   CLOUDY    51  48  89 SW8       29.95R
6HR MIN TEMP:  48; 6HR MAX TEMP:  57;

Toronto Canada CLOUDY    43  41  93 E3        29.90F FOG

$$




USA.gov is the U.S. government's official web portal to all federal, state and local government web resources and services.